PARS 1

Last updated on Mon Jun 22 2026 00:02:52 GMT+0000 (Coordinated Universal Time)

1 59065U 24039Q 26172.52230851 .00009222 00000+0 19180-3 0 9993 2 59065 97.4828 153.5785 0011535 98.8013 261.4543 15.45802388129318
UTC large
Height (km)
Speed (km/s)
/
Latitude / Longitude
Inclination (degrees)
Orbital Period (minutes)
Azimuth
Elevation
Range (km)
Doppler Factor

Next 0 passes for location: London (51.5072 / 0.1276)

No passes found over London.
PARS 1